DELTA 1 DEB

Satellite information

Favourite Embed

Satellite Type and Status

DEBRISIN ORBIT

Key statistics

Satellite DELTA 1 DEB at a glance.

Uptime

17589

Days in orbit

Revolutions

≈ 14.6

Per day

Orbit

LEO

Low Earth Orbit

Inclination

29.3

Latest

Satellite identification and parameters

Extended collection of information and parameters for DELTA 1 DEB.

Object identification

Identified? True

Debris? True

Object name: DELTA 1 DEB

International designator: 1977-065GM

Object number (NORAD): 39100

Object ID (CCSDS): 39100

Country: UNITED STATES OF AMERICA (US)

Current information (Y/N): Y

RCS size: SMALL

Orbital parameters

Period: 98.701 minutes

Inclination: 29.2764 deg

SMA: 7074.683 km

Apoapsis: 949.333 km

Periapsis: 443.763 km

RAAN: 357.9258 deg

Eccentricy: 0.0357309

Argument of periapsis: 162.4031 deg

Mean anomaly: 198.9298 deg

Mean motion: 14.5895624 rev/day

Mean motion (dot): 0.00016558 rev/day2

B* drag term: 0.0013757781 1/REarth

Two-line elements (TLE)

Creation date: Sept. 8, 2025, 6:18 p.m.

Reference frame: TEME

Reference center: EARTH

Epoch: Sept. 8, 2025, 10:16 a.m. UTC

TLE line 0: 0 DELTA 1 DEB

TLE line 1: 1 39100U 77065GM 25251.42825971 .00016558 00000-0 13758-2 0 9992

TLE line 2: 2 39100 29.2764 357.9258 0357309 162.4031 198.9298 14.58956240690823

Live tracking on map

Real-time ground track for satellite DELTA 1 DEB.

In-orbit conjunctions

A list of the most updated potential collisions computed for object DELTA 1 DEB.

Target Orbit TCA Probability of collision Miss distance Type
SL-8 R/B LEO 2025-05-23 01:22:35 0.0002597154 498.0 (m) ROCKET BODY
FENGYUN 1C DEB SSO 2024-11-16 17:42:50 0.0001150662 232.0 (m) DEBRIS

Associated space launch

Japanese meteorological satellite built by Hughes Space and Communications Company

DELTA 1 DEB was lifted into orbit during the mission ‘Delta 2914 | Himawari’, on board a Delta 2914 space rocket.

The launch took place on July 14, 1977, 10:39 a.m. from Space Launch Complex 17B.

For more information about the launch, click the button.

Launch to space Delta 2914 | Himawari
Delta 2914 | Himawari

Agency: N/A

Status: Launch Successful

Launch date: July 14, 1977, 10:39 a.m. UTC

Rocket: Delta 2914

Launch pad: Space Launch Complex 17B

Location: Cape Canaveral SFS, FL, USA

...

Latest news about this satellite

There are no fresh news available about this satellite. Check back as we update our databases every day.


Newsletter sign-up

Weekly statistics, charts and insights to help you stay on top of the space industry.